Lordsburg, NM

1:40 PM MST on November 19, 2017 (GMT -0700)
Lordsburg

Weather History for KLSB - March, 2014

Change the Weather History Date:

Wednesday, March 12, 2014

  Actual Average Record
Temperature  
Mean Temperature 50 °F -  
Max Temperature 59 °F 67 °F 73 °F (2013)
Min Temperature 41 °F 31 °F 32 °F (2013)
Degree Days  
Heating Degree Days 15    
Moisture  
Dew Point 21 °F    
Average Humidity 35    
Maximum Humidity 53    
Minimum Humidity 22    
Precipitation  
Precipitation 0.00 in - - ()
Sea Level Pressure  
Sea Level Pressure 30.16 in    
Wind  
Wind Speed 13 mph (ESE)    
Max Wind Speed 30 mph    
Max Gust Speed 40 mph    
Visibility 10 miles    
Events      
Averages and records for this station are not official NWS values.
T = Trace of Precipitation, MM = Missing Value Source: NWS Daily Summary

Daily Weather History Graph

Daily Weather History Graph

Search for Another Location

Airport or City:

Trip Planner

Search our weather history database for the weather conditions in past years. The results will help you decide how hot, cold, wet, or windy it might be!

Date:

Astronomy

Mar. 12, 2014 Rise Set
Actual Time 7:29 AM MDT 7:20 PM MDT
Civil Twilight 7:04 AM MDT 7:45 PM MDT
Nautical Twilight 6:35 AM MDT 8:14 PM MDT
Astronomical Twilight 6:05 AM MDT 8:43 PM MDT
Moon 4:00 PM MDT (3/12) 4:55 AM MDT (3/12)
Length of Visible Light 12h 40m
Length of Day
11h 50m
Waxing Gibbous, 86% of the Moon is Illuminated
Mar 12
Waxing Gibbous
Mar 16
Full
Mar 23
Last Quarter
Mar 30
New
Apr 7
First Quarter

Hourly Weather History & Observations

Time (MDT) Temp. Windchill Dew Point Humidity Pressure Visibility Wind Dir Wind Speed Gust Speed Precip Events Conditions
12:15 AM 46.4 °F 42.9 °F 23.0 °F 40% 30.03 in 10.0 mi West 6.9 mph - N/A   Clear
12:35 AM 44.6 °F 40.2 °F 23.0 °F 43% 30.03 in 10.0 mi West 8.1 mph - N/A   Clear
12:55 AM 44.6 °F 40.7 °F 23.0 °F 43% 30.03 in 10.0 mi North 6.9 mph - N/A   Clear
1:15 AM 42.8 °F - 23.0 °F 46% 30.04 in 10.0 mi Calm Calm - N/A   Clear
1:35 AM 42.8 °F 40.1 °F 23.0 °F 46% 30.04 in 10.0 mi NW 4.6 mph - N/A   Clear
1:55 AM 42.8 °F 40.1 °F 24.8 °F 49% 30.04 in 10.0 mi West 4.6 mph - N/A   Clear
2:15 AM 44.6 °F 40.2 °F 24.8 °F 46% 30.04 in 10.0 mi West 8.1 mph - N/A   Clear
2:35 AM 44.6 °F 40.2 °F 24.8 °F 46% 30.04 in 10.0 mi WSW 8.1 mph - N/A   Clear
2:55 AM 42.8 °F 39.3 °F 24.8 °F 49% 30.04 in 10.0 mi West 5.8 mph - N/A   Clear
3:15 AM 44.6 °F 41.4 °F 24.8 °F 46% 30.04 in 10.0 mi West 5.8 mph - N/A   Clear
3:35 AM 44.6 °F 41.4 °F 24.8 °F 46% 30.04 in 10.0 mi West 5.8 mph - N/A   Clear
3:55 AM 44.6 °F 40.7 °F 24.8 °F 46% 30.04 in 10.0 mi East 6.9 mph - N/A   Clear
4:15 AM 41.0 °F 35.2 °F 24.8 °F 53% 30.06 in 10.0 mi SE 9.2 mph - N/A   Clear
4:35 AM 42.8 °F 38.0 °F 24.8 °F 49% 30.06 in 10.0 mi SSE 8.1 mph - N/A   Clear
4:55 AM 42.8 °F 37.5 °F 24.8 °F 49% 30.07 in 10.0 mi SSE 9.2 mph - N/A   Clear
5:15 AM 44.6 °F 39.2 °F 24.8 °F 46% 30.08 in 10.0 mi SSE 10.4 mph - N/A   Clear
5:35 AM 46.4 °F 40.4 °F 23.0 °F 40% 30.09 in 10.0 mi SE 13.8 mph - N/A   Clear
5:55 AM 44.6 °F 37.4 °F 21.2 °F 39% 30.11 in 10.0 mi SE 16.1 mph 20.7 mph N/A   Clear
6:15 AM 42.8 °F 35.1 °F 17.6 °F 36% 30.13 in 10.0 mi SE 16.1 mph - N/A   Clear
6:35 AM 41.0 °F 32.8 °F 19.4 °F 42% 30.14 in 10.0 mi SE 16.1 mph - N/A   Clear
6:55 AM 41.0 °F 32.8 °F 19.4 °F 42% 30.15 in 10.0 mi SE 16.1 mph - N/A   Clear
7:15 AM 41.0 °F 32.8 °F 21.2 °F 45% 30.17 in 10.0 mi SE 16.1 mph - N/A   Clear
7:35 AM 41.0 °F 32.8 °F 21.2 °F 45% 30.19 in 10.0 mi SE 16.1 mph 21.9 mph N/A   Scattered Clouds
7:55 AM 41.0 °F 31.9 °F 21.2 °F 45% 30.19 in 10.0 mi SE 19.6 mph 23.0 mph N/A   Scattered Clouds
8:15 AM 41.0 °F 32.2 °F 21.2 °F 45% 30.21 in 10.0 mi ESE 18.4 mph 23.0 mph N/A   Clear
8:35 AM 41.0 °F 31.6 °F 21.2 °F 45% 30.22 in 10.0 mi ESE 20.7 mph 25.3 mph N/A   Clear
8:55 AM 42.8 °F 33.3 °F 21.2 °F 42% 30.23 in 10.0 mi ESE 24.2 mph 31.1 mph N/A   Clear
9:15 AM 44.6 °F 35.5 °F 19.4 °F 37% 30.25 in 10.0 mi ESE 25.3 mph 32.2 mph N/A   Clear
9:35 AM 44.6 °F 35.7 °F 19.4 °F 37% 30.25 in 10.0 mi ESE 24.2 mph 33.4 mph N/A   Clear
9:55 AM 46.4 °F 37.5 °F 19.4 °F 34% 30.25 in 10.0 mi ESE 27.6 mph 34.5 mph N/A   Clear
10:15 AM 48.2 °F - 21.2 °F 34% 30.26 in 10.0 mi ESE 26.5 mph 38.0 mph N/A   Scattered Clouds
10:35 AM 50.0 °F - 21.2 °F 32% 30.26 in 10.0 mi East 27.6 mph 35.7 mph N/A   Clear
10:55 AM 50.0 °F - 21.2 °F 32% 30.27 in 10.0 mi ESE 27.6 mph 38.0 mph N/A   Clear
11:15 AM 50.0 °F - 21.2 °F 32% 30.27 in 10.0 mi East 26.5 mph 40.3 mph N/A   Scattered Clouds
11:35 AM 51.8 °F - 21.2 °F 30% 30.27 in 10.0 mi ESE 27.6 mph 36.8 mph N/A   Scattered Clouds
12:15 PM 51.8 °F - 21.2 °F 30% 30.26 in 10.0 mi East 27.6 mph 36.8 mph N/A   Scattered Clouds
12:35 PM 51.8 °F - 21.2 °F 30% 30.26 in 10.0 mi East 29.9 mph 39.1 mph N/A   Clear
12:55 PM 53.6 °F - 21.2 °F 28% 30.25 in 10.0 mi ESE 25.3 mph 35.7 mph N/A   Scattered Clouds
1:15 PM 55.4 °F - 21.2 °F 26% 30.24 in 10.0 mi East 23.0 mph 35.7 mph N/A   Scattered Clouds
1:35 PM 55.4 °F - 21.2 °F 26% 30.23 in 10.0 mi ESE 25.3 mph 34.5 mph N/A   Scattered Clouds
1:55 PM 55.4 °F - 21.2 °F 26% 30.22 in 10.0 mi ESE 24.2 mph 35.7 mph N/A   Scattered Clouds
2:15 PM 55.4 °F - 21.2 °F 26% 30.21 in 10.0 mi ESE 24.2 mph 32.2 mph N/A   Scattered Clouds
2:35 PM 57.2 °F - 21.2 °F 25% 30.20 in 10.0 mi East 25.3 mph 32.2 mph N/A   Scattered Clouds
2:55 PM 59.0 °F - 21.2 °F 23% 30.20 in 10.0 mi East 24.2 mph 32.2 mph N/A   Scattered Clouds
3:15 PM 59.0 °F - 21.2 °F 23% 30.19 in 10.0 mi ESE 23.0 mph 32.2 mph N/A   Clear
3:35 PM 59.0 °F - 21.2 °F 23% 30.18 in 10.0 mi ESE 21.9 mph 32.2 mph N/A   Clear
3:55 PM 59.0 °F - 21.2 °F 23% 30.18 in 10.0 mi ESE 17.3 mph 26.5 mph N/A   Clear
4:15 PM 59.0 °F - 21.2 °F 23% 30.18 in 10.0 mi ESE 18.4 mph 31.1 mph N/A   Clear
4:35 PM 59.0 °F - 19.4 °F 22% 30.18 in 10.0 mi ESE 20.7 mph 28.8 mph N/A   Clear
4:55 PM 59.0 °F - 19.4 °F 22% 30.17 in 10.0 mi East 17.3 mph 26.5 mph N/A   Clear
5:15 PM 59.0 °F - 19.4 °F 22% 30.16 in 10.0 mi ESE 20.7 mph 26.5 mph N/A   Clear
5:35 PM 59.0 °F - 19.4 °F 22% 30.16 in 10.0 mi ESE 19.6 mph 24.2 mph N/A   Clear
5:55 PM 59.0 °F - 19.4 °F 22% 30.16 in 10.0 mi ESE 18.4 mph 25.3 mph N/A   Clear
6:15 PM 57.2 °F - 19.4 °F 23% 30.16 in 10.0 mi ESE 17.3 mph 24.2 mph N/A   Clear
6:35 PM 55.4 °F - 19.4 °F 25% 30.16 in 10.0 mi ESE 18.4 mph 23.0 mph N/A   Clear
6:55 PM 55.4 °F - 19.4 °F 25% 30.17 in 10.0 mi ESE 16.1 mph 21.9 mph N/A   Clear
7:15 PM 53.6 °F - 19.4 °F 26% 30.18 in 10.0 mi ESE 13.8 mph - N/A   Clear
7:35 PM 53.6 °F - 19.4 °F 26% 30.18 in 10.0 mi ESE 13.8 mph - N/A   Clear
7:55 PM 51.8 °F - 19.4 °F 28% 30.19 in 10.0 mi ESE 11.5 mph - N/A   Clear
8:15 PM 50.0 °F - 19.4 °F 30% 30.19 in 10.0 mi ESE 11.5 mph - N/A   Clear
8:35 PM 50.0 °F - 19.4 °F 30% 30.19 in 10.0 mi ESE 11.5 mph - N/A   Clear
8:55 PM 48.2 °F - 19.4 °F 32% 30.19 in 10.0 mi ESE 10.4 mph - N/A   Clear
9:15 PM 46.4 °F 41.1 °F 19.4 °F 34% 30.20 in 10.0 mi ESE 11.5 mph - N/A   Clear
9:35 PM 46.4 °F 41.1 °F 19.4 °F 34% 30.20 in 10.0 mi ESE 11.5 mph - N/A   Clear
9:55 PM 44.6 °F 38.8 °F 19.4 °F 37% 30.20 in 10.0 mi ESE 11.5 mph - N/A   Clear
10:15 PM 46.4 °F 41.1 °F 19.4 °F 34% 30.20 in 10.0 mi ESE 11.5 mph - N/A   Clear
10:35 PM 46.4 °F 40.7 °F 19.4 °F 34% 30.20 in 10.0 mi ESE 12.7 mph - N/A   Clear
10:55 PM 46.4 °F 40.7 °F 19.4 °F 34% 30.20 in 10.0 mi ESE 12.7 mph - N/A   Clear
11:15 PM 46.4 °F 40.7 °F 19.4 °F 34% 30.20 in 10.0 mi ESE 12.7 mph - N/A   Clear
11:35 PM 46.4 °F 40.7 °F 19.4 °F 34% 30.20 in 10.0 mi ESE 12.7 mph - N/A   Clear
11:55 PM 44.6 °F 38.4 °F 19.4 °F 37% 30.20 in 10.0 mi ESE 12.7 mph - N/A   Clear